[Iaude] MPEC E32: 2024 ER [a=2.16,e=0.55,i=16.0,H=21.5,PHA]

mpec at cfa.harvard.edu mpec at cfa.harvard.edu
Mon Mar 4 06:51:19 EST 2024


M.P.E.C. 2024-E32                                 Issued 2024 March 4, 11:49 UT

     The Minor Planet Electronic Circulars contain information on unusual
         minor planets, routine data on comets and natural satellites,
         and occasional editorial announcements.  They are published
    on behalf of Division F of the International Astronomical Union by the
          Minor Planet Center, Smithsonian Astrophysical Observatory,
                          Cambridge, MA 02138, U.S.A.
			  
             Prepared using the Tamkin Foundation Computer Network

                              MPC at CFA.HARVARD.EDU
            URL https://www.minorplanetcenter.net/    ISSN 1523-6714

                                    2024 ER                                     


Observations:
     K24E00R*1C2024 03 02.15810504 35 15.230-08 38 14.46         18.42GVEE032703
     K24E00R 1C2024 03 02.16036004 35 17.174-08 39 02.77         18.41GVEE032703
     K24E00R 1C2024 03 02.16262804 35 19.090-08 39 52.81         18.05GVEE032703
     K24E00R 1C2024 03 02.16488404 35 21.034-08 40 41.56         17.87GVEE032703
     K24E00R KC2024 03 02.20340804 35 54.499-08 54 45.18         18.44GVEE032I52
     K24E00R KC2024 03 02.20381904 35 54.852-08 54 54.04         18.34GVEE032I52
     K24E00R KC2024 03 02.20422404 35 55.208-08 55 03.07         18.52GVEE032I52
     K24E00R KC2024 03 02.20463004 35 55.561-08 55 11.96         18.42GVEE032I52
     K24E00R  C2024 03 02.20588304 35 56.469-08 55 41.24         18.3 GVEE032H01
     K24E00R  C2024 03 02.20954004 35 59.725-08 57 01.83         18.2 GVEE032H01
     K24E00R  C2024 03 02.21494104 36 04.448-08 58 59.67         18.2 GVEE032H01
     K24E00R  C2024 03 02.21888804 36 07.929-09 00 25.85         18.1 GVEE032H01
     K24E00R KC2024 03 02.44361804 39 35.81 -10 22 43.9          18.3 GVEE032900
     K24E00R KC2024 03 02.45588004 39 46.51 -10 27 12.0          18.1 GVEE032900
     K24E00R KC2024 03 02.46814204 39 57.09 -10 31 38.7          18.3 GVEE032900
     K24E00R KB2024 03 02.57119 04 41 30.70 -11 08 58.5          19.2 GVEE032O46
     K24E00R KB2024 03 02.57475 04 41 33.78 -11 10 15.9          18.4 GVEE032O46
     K24E00R KB2024 03 02.57847 04 41 37.03 -11 11 37.2                VEE032O46
     K24E00R KC2024 03 02.73501 04 44 04.77 -12 08 52.5          18.4 GVEE032C82
     K24E00R KC2024 03 02.73936 04 44 08.63 -12 10 26.6          18.1 GVEE032C82
     K24E00R KB2024 03 02.78950 04 44 53.350-12 28 47.17         18.1 GXEE032K74
     K24E00R KB2024 03 02.79492 04 44 58.154-12 30 44.24         18.0 GXEE032K74
     K24E00R KB2024 03 02.80034 04 45 02.930-12 32 41.78         18.0 GXEE032K74
     K24E00R |C2024 03 03.00787004 48 14.010-13 44 32.80         18.1 GVEE032807
     K24E00R |C2024 03 03.00876004 48 14.780-13 44 51.70         18.2 GVEE032807
     K24E00R |C2024 03 03.00965004 48 15.560-13 45 10.70         18.2 GVEE032807
     K24E00R |C2024 03 03.01054004 48 16.330-13 45 29.90         18.3 GVEE032807
     K24E00R |C2024 03 03.01143004 48 17.110-13 45 49.00         18.3 GVEE032807
     K24E00R KC2024 03 03.03837304 48 43.39 -13 58 10.4          18.7 GVEE032H21
     K24E00R KC2024 03 03.04235204 48 46.86 -13 59 35.8          18.4 GVEE032H21
     K24E00R KC2024 03 03.04434304 48 48.61 -14 00 18.2          18.5 GVEE032H21
     K24E00R KC2024 03 03.04633304 48 50.35 -14 01 01.1          18.5 GVEE032H21
     K24E00R KC2024 03 03.04832404 48 52.10 -14 01 43.8          18.3 GVEE032H21
     K24E00R KC2024 03 03.35413 04 53 33.75 -15 47 33.0          18.4 RqEE032E94
     K24E00R KC2024 03 03.35979 04 53 38.73 -15 49 31.6          18.5 RqEE032E94
     K24E00R KC2024 03 03.36549 04 53 43.81 -15 51 32.0          18.3 RqEE032E94
     K24E00R KC2024 03 03.37198 04 53 49.64 -15 53 48.9          18.3 RqEE032E94
     K24E00R KB2024 03 03.48402 04 55 33.93 -16 36 05.9          19.0 GXEE032Q06
     K24E00R KB2024 03 03.48762 04 55 37.18 -16 37 21.3          18.2 GXEE032Q06
     K24E00R KB2024 03 03.49114 04 55 40.31 -16 38 35.9          18.1 GXEE032Q06
     K24E00R  C2024 03 03.75630 04 59 50.66 -18 08 27.1          18.2 GVEE032M28
     K24E00R  C2024 03 03.75836 04 59 52.47 -18 09 09.3          18.1 GVEE032M28
     K24E00R  C2024 03 03.76043 04 59 54.30 -18 09 52.0          18.2 GVEE032M28
     K24E00R KB2024 03 03.79023505 00 24.04 -18 22 55.9          18.3 GXEE032I93
     K24E00R KB2024 03 03.79905505 00 31.92 -18 25 58.8          18.9 GXEE032I93
     K24E00R KC2024 03 03.80483605 00 37.486-18 28 04.55         18.2 GVEE032J95
     K24E00R KC2024 03 03.80619405 00 38.688-18 28 32.66         18.4 GVEE032J95
     K24E00R KC2024 03 03.80754205 00 39.902-18 29 00.20         17.8 GVEE032J95
     K24E00R KB2024 03 03.80785905 00 39.76 -18 29 00.2          18.3 GXEE032I93
     K24E00R KB2024 03 03.81142 05 00 42.898-18 30 07.20         18.6 GXEE032J57
     K24E00R KB2024 03 03.81360 05 00 44.856-18 30 52.13         18.6 GXEE032J57
     K24E00R KB2024 03 03.81580 05 00 46.826-18 31 37.74         19.3 GXEE032J57
     K24E00R KB2024 03 03.96522705 03 04.815-19 20 36.13         18.2 VZEE032Y05
     K24E00R KB2024 03 03.97034605 03 09.396-19 22 19.94         17.6 VZEE032Y05
     K24E00R 1C2024 03 04.09946805 05 14.330-20 08 06.32         18.00GVEE032703
     K24E00R 1C2024 03 04.10180605 05 16.386-20 08 53.77         17.91GVEE032703
     K24E00R 1C2024 03 04.10414105 05 18.488-20 09 40.28         17.94GVEE032703
     K24E00R 1C2024 03 04.10648105 05 20.555-20 10 28.13         18.19GVEE032703
     K24E00R  C2024 03 04.12899 05 05 40.14 -20 18 03.9          18.2 VtEE032V27
     K24E00R  C2024 03 04.13115 05 05 42.10 -20 18 48.9          16.9 VtEE032V27
     K24E00R KC2024 03 04.42795 05 10 21.62 -21 54 59.6          18.9 VqEE032E23
     K24E00R KC2024 03 04.44184 05 10 34.17 -21 59 30.9          17.8 VqEE032E23
     K24E00R KC2024 03 04.45573 05 10 46.67 -22 04 02.1          18.1 VqEE032E23

Observer details:
703 Catalina Sky Survey.  Observers J. B. Fazekas, K. W. Wierzchos.  Measurers
    T. Beuden, V. F. Carvajal, D. Fay, J. B. Fazekas, D. C. Fuls, A. R. Gibbs,
    A. D. Grauer, H. Groeller, J. K. Hogan, R. A. Kowalski, S. M. Larson, G.
    J. Leonard, D. Rankin, R. L. Seaman, F. C. Shelly, K. W. Wierzchos.
    0.68-m Schmidt + 10K CCD.
807 Cerro Tololo Observatory, La Serena.  Observers T. Linder, R. Holmes.
    0.61-m f/6.8 Ritchey-Chretien + CCD.
900 Moriyama.  Observer Y. Ikari.  0.26-m f/7.0 reflector + CMO.
C82 Osservatorio Astronomico Nastro Verde, Sorrento.  Observer N. Ruocco.
    0.35-m f/6.3  Schmidt-Cassegrain + CCD.
E23 Arcadia.  Observer A. Hidas.  0.35-m f/1.9 reflector + CCD.
E94 Possum Observatory, Gisborne.  Observer J. Drummond.  0.41-m f/4.5
    Newtonian + CCD.
H01 Magdalena Ridge Observatory, Socorro.  Observers W. H. Ryan, E. V. Ryan.
    Measurer W. H. Ryan.  2.4-m f/8.9 Ritchey-Chretien + CCD.
H21 Astronomical Research Observatory, Westfield.  Observer R. Holmes.
    Measurers T. Linder, R. Holmes, L. Horn.  0.81-m f/4.0 astrograph + CCD.
I52 Steward Observatory, Mt. Lemmon Station.  Observers T. Beuden, R. A.
    Kowalski.  Measurers T. Beuden, V. F. Carvajal, D. Fay, J. B. Fazekas, D.
    C. Fuls, A. R. Gibbs, A. D. Grauer, H. Groeller, J. K. Hogan, R. A.
    Kowalski, S. M. Larson, G. J. Leonard, D. Rankin, R. L. Seaman, F. C.
    Shelly, K. W. Wierzchos.  1.0-m prime focus + CCD.
I93 St Pardon de Conques.  Observer F. Losse.  0.40-m f/3.7 reflector + CCD.
J57 Centro Astronomico Alto Turia, Valencia.  Observer A. Fornas.  Measurers
    A. Fornas, G. Fornas, E. Arce, V. Mas.  0.43-m f/6.8 Reflector CDK + CMO.
J95 Great Shefford.  Observer P. Birtwhistle.  0.41-m f/6.3 Schmidt-Cassegrain
    + CCD.
K74 Muensterschwarzach Observatory, Schwarzach.  Observer C. Gerhard.  0.30-m
    f/3.75 reflector + CMO.
M28 Lesedi Telescope-SAAO Observatory, Sutherland.  Observers N. Erasmus, S.
    Potter, C. van Gend, S. Chandra, H. Worters.  Measurers T. Ngwane, N.
    Erasmus.  1.0-m f/8 Reflector + CCD.
O46 Daocheng Glacier Observatory.  Observer Z. Wang.  0.25-m f/8 reflector +
    CMO.
Q06 Tarui Observatory, Tarui.  Observer H. Watanabe.  0.35-m f/1.9 Schmidt-
    Cassegrain + CMO.
V27 North Mesa Observatory, Los Alamos.  Observer B. K. Kendrick.  0.25-m f/6
    reflector + CCD.
Y05 SONEAR Wykrota-CEAMIG, Serra da Piedade.  Observer C. Jacques.  0.45-m
    f/2.9 reflector + CMO.

Orbital elements:
2024 ER                                             PHA, Earth MOID = 0.0112 AU
Epoch 2024 Mar. 31.0 TT = JDT 2460400.5                 Veres                   
M  13.47813              (2000.0)            P               Q                  
n   0.31062079     Peri.  167.78058     -0.77587328     -0.61816252             
a   2.1593135      Node   332.76451     +0.55315743     -0.57045728             
e   0.5510892      Incl.   15.99131     +0.30337685     -0.54078978             
P   3.17           H   21.51          G   0.15           U   7                  
Residuals in seconds of arc
240302 703  0.5+  0.8-    240302 K74  0.6+  0.0     240303 M28  0.2-  0.4+
240302 703  0.5+  0.3+    240302 K74  0.5+  0.4-    240303 I93  0.0   0.4+
240302 703  0.1-  0.0     240303 807  0.1+  0.2-    240303 I93  0.1+  0.6-
240302 703  0.2-  0.6+    240303 807  0.0   0.0     240303 J95  0.2+  0.1+
240302 I52  0.0   0.1+    240303 807  0.0   0.1+    240303 J95  0.1-  0.0
240302 I52  0.1-  0.2+    240303 807  0.1-  0.0     240303 J95  0.0   0.2+
240302 I52  0.1-  0.0     240303 807  0.0   0.0     240303 I93  0.3-  0.6-
240302 I52  0.1-  0.0     240303 H21  0.3+  0.1-    240303 J57  0.2-  0.1+
240302 H01  0.3-  0.3+    240303 H21  0.0   0.2-    240303 J57  0.1+  0.1-
240302 H01  0.3+  0.4-    240303 H21  0.1+  0.2+    240303 J57  0.3+  0.4-
240302 H01  0.1-  0.2-    240303 H21  0.0   0.0     240303 Y05  0.3-  0.1+
240302 H01  0.0   0.1-    240303 H21  0.0   0.0     240303 Y05  0.2+  0.2+
240302 900  0.5-  0.1+    240303 E94  0.4+  0.5-    240304 703  0.2-  0.1-
240302 900  0.8+  0.4-    240303 E94  0.4-  0.3+    240304 703  0.5-  0.3-
240302 900  0.1-  0.3+    240303 E94  0.2-  0.1+    240304 703  0.2-  0.3+
240302 O46  0.0   0.4+    240303 E94  0.4+  0.1-    240304 703  0.3-  0.4-
240302 O46  0.2-  0.3+    240303 Q06  0.1-  0.6+    240304 V27  0.1-  0.9+
240302 O46  0.0   0.1-    240303 Q06  0.5+  0.5+    240304 V27  0.3+  0.7-
240302 C82  0.5-  0.0     240303 Q06  0.3+  0.5-    240304 E23  0.2-  0.4-
240302 C82  0.6+  0.3+    240303 M28  0.1+  0.0     240304 E23  0.5+  0.0
240302 K74  0.2+  0.1-    240303 M28  0.1-  0.4+    240304 E23  0.1-  0.0

Ephemeris:
2024 ER                  a,e,i = 2.16, 0.55, 16                  q = 0.9693
Date    TT    R. A. (2000) Decl.     Delta      r    Elong.  Phase     V
2024 02 03    00 51 55.4 +50 31 18   0.2056  0.9852    83.9    84.1    21.0
...
2024 02 18    02 07 44.8 +40 27 59   0.1113  0.9695    77.1    96.4    20.1
...
2024 02 26    03 24 51.2 +19 32 00   0.06937 0.9769    77.3    98.8    19.2
...
2024 03 03    04 48 09.2 -13 42 10   0.05920 0.9895    86.6    90.0    18.5
2024 03 04    05 03 41.6 -19 32 16   0.06047 0.9922    88.8    87.7    18.5
2024 03 05    05 19 27.4 -24 58 31   0.06257 0.9950    91.1    85.3    18.5
...
2024 03 11    06 51 38.8 -46 22 14   0.08747 1.0151   101.9    73.3    18.8
...
2024 03 19    08 25 40.9 -55 18 59   0.1355  1.0494   109.9    63.1    19.5
...
2024 04 03    10 00 11.1 -56 29 55   0.2356  1.1327   118.9    50.6    20.5

M. P. C. Staff               (C) Copyright 2024 MPC           M.P.E.C. 2024-E32





More information about the Iaude mailing list